Other Public Products
Issued by NWS Grand Forks, ND

Home | Current Version | Previous Version | Text Only | Print | Product List | Glossary Off
Versions: 1 2 3 4 5 6 7 8 9 10 11 12 13 14 15 16 17 18 19 20 21 22 23 24 25 26 27 28 29 30 31 32 33 34 35 36 37 38 39 40 41 42 43 44 45 46 47 48 49 50

000
FPUS83 KFGF 182031
OPUFGF
PRAIRIE TO PINES WEATHER ROUNDUP
NATIONAL WEATHER SERVICE EASTERN NORTH DAKOTA/GRAND FORKS ND
200 PM CST MON DEC 18 2017

 **SATELLITE DATA USED TO AUGMENT SKY COVER AT AUTOMATED STATIONS**
 *****  WEATHER ACROSS EASTERN NORTH DAKOTA  *****

CITY           SKY/WX    TMP DP  RH WIND       PRES   REMARKS
GRAND FORKS    CLOUDY    36  30  79 W8        29.49F
GRND FORKS AFB LGT RAIN  37  28  70 W8        29.50S
GRND FORKS NWS   N/A     36 N/A N/A W6          N/A
BUXTON           N/A     37  34  90 SW8         N/A
DEVILS LAKE    CLOUDY    37  28  70 W16       29.51R
FARGO          LGT RAIN  36  33  89 S9        29.54F
WAHPETON ARPT  MOCLDY    37  30  75 SW10      29.58F
$$

 *****  WEATHER ACROSS CENTRAL AND WESTERN NORTH DAKOTA  *****

CITY           SKY/WX    TMP DP  RH WIND       PRES   REMARKS
JAMESTOWN      PTSUNNY   40  34  79 W15       29.53S
BISMARCK       CLOUDY    45  35  68 W12       29.58F
MINOT          CLOUDY    36  34  92 NW7       29.54S
MINOT AFB      MOSUNNY   36  34  93 NW13      29.54S
GARRISON         N/A     38  36  92 W13       29.55S
WILLISTON      CLOUDY    37  34  89 N13       29.59R
DICKINSON      FAIR      46  28  49 W23G35    29.57S
HETTINGER      FAIR      51  25  36 W25G32    29.62F
$$

 *****  OTHER OBSERVATIONS NORTHEAST NORTH DAKOTA  *****

CITY           SKY/WX    TMP DP  RH WIND       PRES   REMARKS
WALHALLA       FAIR      37  30  75 W15       29.49R
LANGDON        LGT SNOW  34  32  93 NW16      29.49R WCI  23
CAVALIER       FAIR      37  28  70 NW13      29.48S
GRAFTON        FAIR      36  30  80 W8        29.49F
CANDO          CLOUDY    36  32  87 W14       29.53R
FORT TOTTEN      N/A     36  30  78 W7        29.95S
ROLLA          CLOUDY    34  30  86 NW17G24   29.50R WCI  23
RUGBY          LGT SNOW  32  32 100 W15       29.53R WCI  22
 ***** THE ABOVE OBSERVATIONS ARE NON NWS ARE NOT QUALITY
        CONTROLLED AND MAY MIS-REPORT RAIN FOR SNOW...
$$

 *****  OTHER OBSERVATIONS SOUTHEAST NORTH DAKOTA *****

CITY           SKY/WX    TMP DP  RH WIND       PRES   REMARKS
COOPERSTOWN    MOCLDY    36  34  93 W18G26    29.52S
VALLEY CITY    MIX PCPN  37  37 100 W15G25    29.55R
OAKES            N/A     41  32  70 SW16      29.58S
GWINNER          N/A     39  30  70 SW15      29.57S
SHEYENNE NWR     N/A     38  35  91 SW9       29.95S
BUFFALO          N/A     37  32  82 S13         N/A
WYNDMERE       NOT AVBL
 ***** THE ABOVE OBSERVATIONS ARE NON NWS ARE NOT QUALITY
       CONTROLLED AND MAY MIS-REPORT RAIN FOR SNOW...
$$

  *****  WEATHER ACROSS NORTHERN MINNESOTA  *****

CITY           SKY/WX    TMP DP  RH WIND       PRES   REMARKS
FLAG ISLAND    PTSUNNY   36  30  80 SW10      29.40F
WARROAD        CLOUDY    34  28  80 SW8       29.44S
ROSEAU         FAIR      34  28  80 SW9       29.44F
HALLOCK        FAIR      34  30  86 SW5       29.47S
THF RVR FALLS  FLURRIES  32  28  85 SW9       29.49  WCI  24
HALSTAD        NOT AVBL
FOSSTON        FAIR      30  28  93 SW16      29.50F WCI  19
BAUDETTE       SNOW      31  30  96 SW10      29.43R VSB 1/2 WCI  22
WASKISH        LGT SNOW  34  30  86 SW7       29.46F
CROOKSTON      FAIR      34  30  86 SW12      29.50F
$$
  *****  WEATHER ACROSS CENTRAL AND WEST MINNESOTA  *****

CITY           SKY/WX    TMP DP  RH WIND       PRES   REMARKS
BEMIDJI        LGT SNOW  32  31  94 SW9       29.49F WCI  24
PARK RAPIDS    LGT SNOW  32  29  88 SW7       29.52F FOG
WADENA         LGT RAIN  34  28  80 SW9       29.55F
DETROIT LAKES  LGT SNOW  32  32 100 SW8       29.55S WCI  25
MOORHEAD       DRIZZLE   34  30  86 CALM      29.56S
FERGUS FALLS   FAIR      34  32  93 SW7       29.60F
ELBOW LAKE     CLOUDY    36  32  86 W7        29.59F
MORRIS MN      FAIR      39  30  70 SW3       29.58F
STAPLES        PTSUNNY   34  27  75 SW7       29.57S
WHEATON        PTSUNNY   41  28  60 SW12      29.62S
$$
  *****  WEATHER ELSEWHERE ACROSS MINNESOTA  *****

CITY           SKY/WX    TMP DP  RH WIND       PRES   REMARKS
DULUTH         CLOUDY    30  27  88 SW12      29.56F WCI  20
INTRNTL FALLS  SNOW      32  30  92 SW8       29.45F VSB 1/4 WCI  25
ELY            FAIR      30  27  86 SW5       29.49F
CLOQUET        FAIR      32  27  80 S8        29.56F WCI  25
BRAINERD       CLOUDY    34  27  75 SW12      29.58F
HIBBING        CLOUDY    32  25  75 S8        29.52F WCI  25
ALEXANDRIA     PTSUNNY   37  28  70 SW14      29.60F
SAINT CLOUD    CLOUDY    35  29  78 S9        29.63F
MINNEAPOLIS    CLOUDY    36  29  75 S7        29.69F
$$

  *****  WEATHER ACROSS SOUTH DAKOTA  *****

CITY           SKY/WX    TMP DP  RH WIND       PRES   REMARKS
SIOUX FALLS    PTSUNNY   49  27  42 SW8       29.73F
BROOKINGS      NOT AVBL
WATERTOWN      CLOUDY    42  28  57 SW16      29.63F
HURON          FAIR      52  27  38 SW9       29.67F
SISSETON         N/A     42  29  59 W17       29.59F
ABERDEEN       CLOUDY    47  27  45 SW18      29.62F
MITCHELL       FAIR      50  27  40 SW13      29.71F
PIERRE         CLOUDY    50  26  39 W14       29.67F
MOBRIDGE       FAIR      53  28  38 W12       29.60F
RAPID CITY     FAIR      55  25  31 W8        29.72F
$$

  *****  SOME WEATHER IN NEARBY STATES *****

CITY           SKY/WX    TMP DP  RH WIND       PRES   REMARKS
GLASGOW MT     LGT SNOW  33  32  96 NW15      29.66R FOG     WCI  23
GREAT FALLS MT FAIR      48  24  39 W24G35    29.72S
CHEYENNE WY    FAIR      48  23  37 W26G35    29.93F
SCOTTSBLUFF NE FAIR      53  24  32 W28G38    29.86F
OMAHA NE       FAIR      52  26  36 SW12      29.86F
DES MOINES IA  FAIR      49  33  54 SW18      29.85F
DAVENPORT IA   FAIR      47  36  65 SW13      29.89F
CHICAGO IL     PTSUNNY   45  34  65 W13G22    29.86F
EAU CLAIRE WI  FAIR      33  28  81 S8        29.70F
LA CROSSE WI   FAIR      36  29  75 S12       29.77F
$$

  *****  SOME NATIONAL WEATHER *****

CITY           SKY/WX    TMP DP  RH WIND       PRES   REMARKS
LA GUARDIA NY  PTSUNNY   44  35  70 CALM      29.97S
RALEIGH NC     PTSUNNY   59  44  57 SW6       30.08S
ATLANTA GA     PTSUNNY   61  55  81 NW10      30.17R
NEW ORLEANS LA CLOUDY    70  67  90 E7G20     30.17F
OKLAHOMA CITY  FAIR      50  43  77 S10       30.09F
ALBUQUERQUE NM PTSUNNY   41  24  51 S3        30.15F
SALT LAKE CITY PTSUNNY   41  24  51 S5        30.26F
LOS ANGELES CA FAIR      70  19  14 CALM      30.15F
BOISE ID       FAIR      41  28  60 CALM      30.21F
SEATTLE WA     LGT RAIN  45  43  93 E8        30.13S FOG
$$

*** WEATHER ACROSS MANITOBA...SASKATCHEWAN AND ONTARIO ***
                ***ONTARIO***

CITY           SKY/WX    TMP DP  RH WIND       PRES   REMARKS
GERALDTON      CLOUDY    32  28  86 SW18G26   29.41F WCI  20
THUNDER BAY    CLOUDY    34  30  86 SW10      29.50F
SIOUX LOOKOUT  CLOUDY    30  27  86 SW9       29.35F WCI  22
TORONTO        DRIZZLE   37  36  93 SW7       29.80F FOG
BIG TROUT LK   FLURRIES  30  30 100 W12G20    29.06F WCI  21
PICKLE LAKE    FLURRIES  28  27  93 SW15      29.25F WCI  17
DRYDEN         PTSUNNY   32  28  86 SW10      29.36F WCI  24
KENORA         PTSUNNY   28  28 100 SW7       29.38F WCI  21
$$
                *** MANITOBA***

CITY           SKY/WX    TMP DP  RH WIND       PRES   REMARKS
BRANDON        PTSUNNY   32  25  74 W13       29.47S WCI  22
DAUPHIN        SUNNY     30  23  74 W23G29    29.42S WCI  17
ISLAND LAKE    NOT AVBL
PILOT MOUND      N/A     32  27  80 NW9         N/A  WCI  24
THE PAS        FLURRIES  30  23  74 W10       29.30S WCI  21
THOMPSON       CLOUDY    18  10  73 NW16G24   29.15R WCI   3
WINNIPEG       PTSUNNY   34  27  75 W12       29.43F
LYNN LAKE      FLURRIES  12  10  92 NW21G35   29.20R WCI  -6
CHURCHILL      LGT SNOW  10   9  92 NE16      29.09R DRFTSNOWWCI  -7
GILLAM         LGT SNOW  14  10  85 W18G25    29.03R WCI  -3
$$
                ***SASKATCHEWAN***

CITY           SKY/WX    TMP DP  RH WIND       PRES   REMARKS
ESTEVAN        MOSUNNY   34  32  93 W13       29.55S WCI  25
KINDERSLEY     MOSUNNY   30  18  59 W16G22    29.64R WCI  19
LLOYDMINSTER   MOSUNNY   28  18  64 NW17G24   29.58R WCI  16
PRINCE ALBERT  MOSUNNY   30  18  59 W22G31    29.47R WCI  17
REGINA         PTSUNNY   34  21  60 W17G24    29.56S WCI  23
YORKTON        SUNNY     28  21  74 W14       29.46R WC



USA.gov is the U.S. government's official web portal to all federal, state and local government web resources and services.